| time (UTC) | temp C | wind direction | speed KPH | gust KPH | rain 1hr cm | rain 24hr cm | rain mn cm | humidity % | barometer mb |
| 20260505222022 | 17 | 283 | 3.2 | 6.4 | 0.00 | 0.00 | 0.00 | 59 | 1005.4 |
| 20260505221019 | 17 | 240 | 3.2 | 11.3 | 0.00 | 0.00 | 0.00 | 59 | 1005.2 |
| 20260505220018 | 17 | 279 | 1.6 | 12.9 | 0.00 | 0.00 | 0.00 | 58 | 1005.3 |
| 20260505215020 | 17 | 272 | 4.8 | 20.9 | 0.00 | 0.00 | 0.00 | 57 | 1005.1 |
| 20260505214027 | 18 | 260 | 4.8 | 17.7 | 0.00 | 0.00 | 0.00 | 56 | 1005.0 |
| 20260505213019 | 18 | 273 | 4.8 | 17.7 | 0.00 | 0.00 | 0.00 | 56 | 1005.1 |
| 20260505212021 | 18 | 269 | 6.4 | 17.7 | 0.00 | 0.00 | 0.00 | 56 | 1004.9 |
| 20260505211038 | 17 | 242 | 4.8 | 22.5 | 0.00 | 0.00 | 0.00 | 55 | 1004.6 |
| 20260505210017 | 17 | 222 | 3.2 | 12.9 | 0.00 | 0.00 | 0.00 | 53 | 1004.6 |
| 20260505205023 | 17 | 221 | 4.8 | 14.5 | 0.00 | 0.00 | 0.00 | 53 | 1004.5 |
| 20260505204022 | 16 | 244 | 3.2 | 12.9 | 0.00 | 0.00 | 0.00 | 55 | 1004.5 |
| 20260505203017 | 16 | 262 | 0.0 | 3.2 | 0.00 | 0.00 | 0.00 | 57 | 1004.2 |
| 20260505202020 | 17 | 263 | 1.6 | 3.2 | 0.00 | 0.00 | 0.00 | 55 | 1003.9 |
| 20260505201018 | 17 | 250 | 1.6 | 3.2 | 0.00 | 0.00 | 0.00 | 54 | 1003.7 |
| 20260505200020 | 17 | 154 | 0.0 | 3.2 | 0.00 | 0.00 | 0.00 | 51 | 1003.5 |
| 20260505195019 | 18 | 169 | 1.6 | 4.8 | 0.00 | 0.00 | 0.00 | 51 | 1003.5 |
| 20260505194023 | 18 | 137 | 0.0 | 1.6 | 0.00 | 0.00 | 0.00 | 49 | 1003.4 |
| 20260505193019 | 18 | 151 | 3.2 | 6.4 | 0.00 | 0.00 | 0.00 | 48 | 1003.4 |
| 20260505192020 | 19 | 142 | 6.4 | 12.9 | 0.00 | 0.00 | 0.00 | 47 | 1003.3 |
| 20260505191023 | 19 | 138 | 8.0 | 16.1 | 0.00 | 0.00 | 0.00 | 47 | 1003.2 |
| 20260505190045 | 19 | 137 | 8.0 | 16.1 | 0.00 | 0.00 | 0.00 | 46 | 1003.2 |
| 20260505185021 | 20 | 138 | 8.0 | 14.5 | 0.00 | 0.00 | 0.00 | 46 | 1003.1 |
| 20260505184041 | 20 | 144 | 9.7 | 14.5 | 0.00 | 0.00 | 0.00 | 46 | 1003.1 |
| 20260505183022 | 20 | 140 | 9.7 | 14.5 | 0.00 | 0.00 | 0.00 | 45 | 1003.0 |
| 20260505182019 | 21 | 142 | 9.7 | 17.7 | 0.00 | 0.00 | 0.00 | 44 | 1003.0 |
| 20260505181021 | 21 | 142 | 9.7 | 16.1 | 0.00 | 0.00 | 0.00 | 43 | 1002.9 |
| 20260505180040 | 21 | 143 | 9.7 | 22.5 | 0.00 | 0.00 | 0.00 | 43 | 1002.9 |
| 20260505175019 | 21 | 135 | 11.3 | 20.9 | 0.00 | 0.00 | 0.00 | 42 | 1002.9 |
| 20260505174104 | 22 | 143 | 9.7 | 17.7 | 0.00 | 0.00 | 0.00 | 42 | 1002.9 |
| 20260505173019 | 22 | 137 | 9.7 | 22.5 | 0.00 | 0.00 | 0.00 | 41 | 1002.9 |
| 20260505172016 | 22 | 143 | 14.5 | 27.4 | 0.00 | 0.00 | 0.00 | 40 | 1002.8 |
| 20260505171019 | 23 | 139 | 9.7 | 17.7 | 0.00 | 0.00 | 0.00 | 40 | 1002.8 |
| 20260505170020 | 23 | 144 | 8.0 | 17.7 | 0.00 | 0.00 | 0.00 | 39 | 1003.0 |
| 20260505165018 | 23 | 146 | 8.0 | 16.1 | 0.00 | 0.00 | 0.00 | 38 | 1003.1 |
| 20260505164018 | 23 | 138 | 9.7 | 17.7 | 0.00 | 0.00 | 0.00 | 38 | 1003.2 |
| 20260505163019 | 23 | 125 | 8.0 | 12.9 | 0.00 | 0.00 | 0.00 | 37 | 1003.2 |
| 20260505162519 | 23 | 147 | 9.7 | 24.1 | 0.00 | 0.00 | 0.00 | 37 | 1003.2 |
| 20260505161517 | 24 | 147 | 8.0 | 17.7 | 0.00 | 0.00 | 0.00 | 36 | 1003.3 |
| 20260505160616 | 24 | 156 | 6.4 | 14.5 | 0.00 | 0.00 | 0.00 | 35 | 1003.4 |
| 20260505152521 | 25 | 137 | 16.1 | 29.0 | 0.00 | 0.00 | 0.00 | 34 | 1003.4 |
| 20260505151522 | 25 | 135 | 16.1 | 38.6 | 0.00 | 0.00 | 0.00 | 32 | 1003.4 |
| 20260505150523 | 26 | 147 | 16.1 | 29.0 | 0.00 | 0.00 | 0.00 | 31 | 1003.4 |
| 20260505140518 | 27 | 127 | 16.1 | 27.4 | 0.00 | 0.00 | 0.00 | 27 | 1003.4 |
| 20260505124522 | 27 | 127 | 9.7 | 24.1 | 0.00 | 0.00 | 0.00 | 25 | 1004.5 |
| 20260505123542 | 27 | 133 | 8.0 | 17.7 | 0.00 | 0.00 | 0.00 | 26 | 1004.7 |
| 20260505122519 | 27 | 141 | 14.5 | 29.0 | 0.00 | 0.00 | 0.00 | 25 | 1004.9 |
| 20260505121520 | 27 | 135 | 11.3 | 20.9 | 0.00 | 0.00 | 0.00 | 27 | 1005.1 |
| 20260505120522 | 27 | 116 | 11.3 | 25.7 | 0.00 | 0.00 | 0.00 | 30 | 1005.3 |
| 20260505115520 | 26 | 126 | 12.9 | 29.0 | 0.00 | 0.00 | 0.00 | 30 | 1005.6 |
| 20260505114519 | 26 | 126 | 12.9 | 27.4 | 0.00 | 0.00 | 0.00 | 32 | 1005.7 |
| 20260505113520 | 25 | 133 | 6.4 | 20.9 | 0.00 | 0.00 | 0.00 | 35 | 1005.9 |
| 20260505112517 | 25 | 128 | 6.4 | 16.1 | 0.00 | 0.00 | 0.00 | 37 | 1006.1 |
| 20260505111519 | 25 | 113 | 11.3 | 22.5 | 0.00 | 0.00 | 0.00 | 37 | 1006.5 |
| 20260505110518 | 25 | 136 | 8.0 | 16.1 | 0.00 | 0.00 | 0.00 | 37 | 1006.5 |
| 20260505101517 | 23 | 126 | 8.0 | 16.1 | 0.00 | 0.00 | 0.00 | 39 | 1007.3 |
| 20260505100541 | 23 | 135 | 8.0 | 16.1 | 0.00 | 0.00 | 0.00 | 38 | 1007.5 |
| 20260505095518 | 23 | 101 | 9.7 | 22.5 | 0.00 | 0.00 | 0.00 | 38 | 1007.6 |
| 20260505094519 | 23 | 127 | 4.8 | 11.3 | 0.00 | 0.00 | 0.00 | 39 | 1007.7 |
| 20260505093519 | 23 | 115 | 8.0 | 17.7 | 0.00 | 0.00 | 0.00 | 39 | 1007.7 |
| 20260505092523 | 23 | 100 | 6.4 | 12.9 | 0.00 | 0.00 | 0.00 | 40 | 1007.9 |
| 20260505091604 | 23 | 56 | 3.2 | 9.7 | 0.00 | 0.00 | 0.00 | 43 | 1008.0 |
| 20260505090518 | 23 | 7 | 3.2 | 6.4 | 0.00 | 0.00 | 0.00 | 44 | 1008.1 |
| 20260505085519 | 23 | 348 | 4.8 | 12.9 | 0.00 | 0.00 | 0.00 | 45 | 1008.1 |
| 20260505084521 | 22 | 0 | 3.2 | 9.7 | 0.00 | 0.00 | 0.00 | 46 | 1008.2 |
| 20260505083518 | 22 | 26 | 3.2 | 9.7 | 0.00 | 0.00 | 0.00 | 48 | 1008.2 |
| 20260505082518 | 21 | 17 | 3.2 | 9.7 | 0.00 | 0.00 | 0.00 | 49 | 1008.4 |
| 20260505081539 | 21 | 359 | 1.6 | 9.7 | 0.00 | 0.00 | 0.00 | 50 | 1008.6 |
| 20260505080521 | 20 | 0 | 4.8 | 9.7 | 0.00 | 0.00 | 0.00 | 50 | 1008.6 |
| 20260505075520 | 19 | 352 | 3.2 | 4.8 | 0.00 | 0.00 | 0.00 | 53 | 1008.5 |
| 20260505074517 | 18 | 39 | 1.6 | 6.4 | 0.00 | 0.00 | 0.00 | 51 | 1008.6 |
| 20260505073518 | 18 | 350 | 3.2 | 4.8 | 0.00 | 0.00 | 0.00 | 53 | 1008.7 |
| 20260505072522 | 17 | 31 | 1.6 | 4.8 | 0.00 | 0.00 | 0.00 | 53 | 1008.8 |
| 20260505071520 | 16 | 90 | 0.0 | 3.2 | 0.00 | 0.00 | 0.00 | 54 | 1008.8 |
| 20260505070519 | 16 | 37 | 0.0 | 3.2 | 0.00 | 0.00 | 0.00 | 57 | 1008.9 |
| 20260505065517 | 15 | 58 | 1.6 | 3.2 | 0.00 | 0.00 | 0.00 | 59 | 1008.9 |
| 20260505064521 | 15 | 61 | 1.6 | 3.2 | 0.00 | 0.00 | 0.00 | 62 | 1008.9 |
| 20260505063517 | 13 | 92 | 1.6 | 3.2 | 0.00 | 0.00 | 0.00 | 68 | 1008.9 |
| 20260505062519 | 12 | 44 | 0.0 | 3.2 | 0.00 | 0.00 | 0.00 | 70 | 1008.9 |
| 20260505061517 | 12 | 0.0 | 0.0 | 0.00 | 0.00 | 0.00 | 73 | 1008.9 | |
| 20260505060521 | 12 | 0.0 | 0.0 | 0.00 | 0.00 | 0.00 | 71 | 1008.9 | |
| 20260505055523 | 12 | 0.0 | 0.0 | 0.00 | 0.00 | 0.00 | 71 | 1008.8 | |
| 20260505054525 | 12 | 41 | 0.0 | 1.6 | 0.00 | 0.00 | 0.00 | 71 | 1008.9 |
| 20260505053521 | 12 | 0.0 | 0.0 | 0.00 | 0.00 | 0.00 | 74 | 1008.9 | |
| 20260505052521 | 12 | 317 | 1.6 | 3.2 | 0.00 | 0.00 | 0.00 | 71 | 1008.9 |
| 20260505051521 | 12 | 317 | 0.0 | 1.6 | 0.00 | 0.00 | 0.00 | 75 | 1008.7 |
| 20260505050522 | 11 | 317 | 1.6 | 3.2 | 0.00 | 0.00 | 0.00 | 76 | 1008.7 |
| 20260505041517 | 10 | 0.0 | 0.0 | 0.00 | 0.00 | 0.00 | 78 | 1008.6 | |
| 20260505040521 | 10 | 317 | 0.0 | 1.6 | 0.00 | 0.00 | 0.00 | 78 | 1008.5 |
| 20260505035522 | 10 | 0.0 | 0.0 | 0.00 | 0.00 | 0.00 | 79 | 1008.6 | |
| 20260505034545 | 10 | 0.0 | 0.0 | 0.00 | 0.00 | 0.00 | 78 | 1008.5 | |
| 20260505033537 | 10 | 0.0 | 0.0 | 0.00 | 0.00 | 0.00 | 77 | 1008.5 | |
| 20260505032541 | 10 | 0.0 | 0.0 | 0.00 | 0.00 | 0.00 | 77 | 1008.6 | |
| 20260505031517 | 10 | 317 | 0.0 | 1.6 | 0.00 | 0.00 | 0.00 | 76 | 1008.7 |
| 20260505030522 | 10 | 317 | 0.0 | 1.6 | 0.00 | 0.00 | 0.00 | 75 | 1008.6 |
| 20260505025520 | 10 | 317 | 0.0 | 1.6 | 0.00 | 0.00 | 0.00 | 75 | 1008.7 |
| 20260505024520 | 10 | 317 | 0.0 | 1.6 | 0.00 | 0.00 | 0.00 | 74 | 1008.7 |
| 20260505023540 | 11 | 312 | 1.6 | 3.2 | 0.00 | 0.00 | 0.00 | 72 | 1008.8 |
| 20260505022523 | 11 | 0.0 | 0.0 | 0.00 | 0.00 | 0.00 | 72 | 1008.8 | |
| 20260505021518 | 11 | 0.0 | 0.0 | 0.00 | 0.00 | 0.00 | 71 | 1008.9 | |
| 20260505020521 | 11 | 0.0 | 0.0 | 0.00 | 0.00 | 0.00 | 71 | 1009.0 | |
| 20260505015520 | 11 | 0.0 | 0.0 | 0.00 | 0.00 | 0.00 | 70 | 1009.1 | |
| 20260505014517 | 11 | 162 | 0.0 | 1.6 | 0.00 | 0.00 | 0.00 | 69 | 1009.1 |
| 20260505013521 | 12 | 119 | 1.6 | 3.2 | 0.00 | 0.00 | 0.00 | 68 | 1009.2 |
| 20260505012605 | 12 | 174 | 0.0 | 1.6 | 0.00 | 0.00 | 0.00 | 67 | 1009.2 |
| 20260505011520 | 12 | 192 | 0.0 | 1.6 | 0.00 | 0.00 | 0.00 | 65 | 1009.3 |
| 20260505010516 | 13 | 231 | 0.0 | 3.2 | 0.00 | 0.00 | 0.00 | 62 | 1009.2 |
| 20260505005521 | 13 | 277 | 1.6 | 9.7 | 0.00 | 0.00 | 0.00 | 62 | 1009.2 |
| 20260505004520 | 13 | 269 | 0.0 | 1.6 | 0.00 | 0.00 | 0.00 | 63 | 1009.2 |
| 20260505003539 | 13 | 289 | 1.6 | 4.8 | 0.00 | 0.00 | 0.00 | 63 | 1009.2 |
| 20260505002518 | 13 | 279 | 1.6 | 4.8 | 0.00 | 0.00 | 0.00 | 61 | 1009.2 |
| 20260505001517 | 14 | 279 | 1.6 | 3.2 | 0.00 | 0.00 | 0.00 | 59 | 1009.2 |
| 20260505000517 | 14 | 288 | 1.6 | 3.2 | 0.00 | 0.00 | 0.00 | 59 | 1009.1 |
| 20260504235545 | 14 | 295 | 3.2 | 6.4 | 0.00 | 0.00 | 0.00 | 59 | 1009.2 |
| 20260504234518 | 14 | 15 | 1.6 | 1.6 | 0.00 | 0.00 | 0.00 | 59 | 1009.3 |
| 20260504233539 | 14 | 343 | 0.0 | 1.6 | 0.00 | 0.00 | 0.00 | 60 | 1009.4 |
| 20260504232521 | 14 | 338 | 0.0 | 1.6 | 0.00 | 0.00 | 0.00 | 58 | 1009.4 |
| 20260504231519 | 15 | 0.0 | 0.0 | 0.00 | 0.00 | 0.00 | 56 | 1009.4 | |
| 20260504230521 | 15 | 285 | 0.0 | 1.6 | 0.00 | 0.00 | 0.00 | 55 | 1009.6 |
| 20260504225516 | 16 | 0.0 | 0.0 | 0.00 | 0.00 | 0.00 | 53 | 1009.5 | |
| 20260504224519 | 16 | 285 | 3.2 | 4.8 | 0.00 | 0.00 | 0.00 | 50 | 1009.7 |
| 20260504223521 | 17 | 330 | 0.0 | 1.6 | 0.00 | 0.00 | 0.00 | 48 | 1009.6 |
| 20260504222518 | 18 | 319 | 1.6 | 4.8 | 0.00 | 0.00 | 0.00 | 45 | 1009.6 |